Regional Weather Roundup
Issued by NWS

Home | Current Version | Previous Version | Graphics & Text | Print | Product List | Glossary On
Versions: 1 2 3 4 5 6 7 8 9 10 11 12 13 14 15 16 17 18 19 20 21 22 23 24 25 26 27 28 29 30 31 32 33 34 35 36 37 38 39 40 41 42 43 44 45 46 47 48 49 50
000
ASUS45 KSLC 201110
RWRUT

UTAH REGIONAL WEATHER ROUNDUP
NATIONAL WEATHER SERVICE SALT LAKE CITY UT
400 AM MST SAT DEC 20 2014

UTZ001>011-023>025-201200-

NORTHERN UTAH

CITY           SKY/WX    TMP DP  RH WIND       PRES   REMARKS
BRIGHAM CITY   CLOUDY    37  35  90 N3        30.15R
HILL AFB       MIX PCPN  36  36 100 SW3       30.13R
LOGAN          CLOUDY    35  34  96 N3        30.12S
OGDEN          CLOUDY    36  36 100 CALM      30.13R
PROVO AIRPORT  MOCLDY    36  32  87 CALM      30.16R
SALT LAKE CITY MOCLDY    39  33  79 CALM      30.13S
VERNAL         CLOUDY    27  22  81 CALM      30.18F
WENDOVER       PTCLDY    30  27  86 CALM      30.13F
HEBER CITY     CLOUDY    32  30  93 CALM      30.13R
WEST JORDAN    CLOUDY    37  36  93 S12G17    30.13S WCI  30

$$

UTZ012>022-026-027-201200-

SOUTHERN/CENTRAL UTAH

CITY           SKY/WX    TMP DP  RH WIND       PRES   REMARKS
BLANDING       PTCLDY    26  25  97 CALM      30.25F
BRYCE CANYON   CLEAR     16  13  88 SW6       30.14F WCI   7
CEDAR CITY     CLEAR     27  22  81 CALM      30.15R
DELTA          CLOUDY    35  29  78 CALM      30.14R
MILFORD        CLEAR     32  25  75 S13       30.13S WCI  22
MOAB/CYNLANDS  CLOUDY    31  30  96 CALM      30.17F
PRICE          CLOUDY    25  20  81 CALM      30.17S
ST GEORGE      PTSUNNY   37  30  75 CALM      30.19S
KANAB          CLEAR     30  30 100 N5        30.20F WCI  25

$$

REGIONAL REPORTS     COLORADO/ARIZONA

CITY           SKY/WX    TMP DP  RH WIND       PRES   REMARKS
CRAIG, CO      CLOUDY    23  18  81 E5        30.15F WCI  17
GRAND JUNCTION CLOUDY    27  24  89 E6        30.19F WCI  20
RIFLE          MOCLDY    25  21  85 NE3       30.21F
MONTROSE       MOCLDY    23  18  81 W7        30.23R WCI  15
CORTEZ         CLEAR     24  20  84 E3        30.19S
PAGE, AZ       CLEAR     35  28  75 W3        30.16F
GRAND CANYON   PTCLDY    23  21  92 CALM      30.17F
KINGMAN        PTCLDY    34  29  82 SW3       30.15S
FLAGSTAFF      PTCLDY    24  22  91 CALM      30.17S

$$

REGIONAL REPORTS    NEVADA/IDAHO/WYOMING

CITY           SKY/WX    TMP DP  RH WIND       PRES   REMARKS
LAS VEGAS, NV  PTCLDY    44  36  73 S10       30.13R
ELY            PTCLDY    22  21  96 S8        30.16S WCI  12
ELKO           CLOUDY    32  30  92 N3        30.10F
POCATELLO, ID  MOCLDY    36  33  89 S10       30.09F WCI  28
BURLEY         CLOUDY    36  32  85 S3        30.07F
EVANSTON, WY   CLOUDY    29  25  85 SW9       30.08F WCI  20
ROCK SPRINGS   CLOUDY    27  20  75 SW10      30.07S WCI  17
KEMMERER       CLOUDY    28  27  93 SW5       30.07F WCI  23

$$


USA.gov is the U.S. government's official web portal to all federal, state and local government web resources and services.